SWA1738 KDEN-KMTJ

Flight info

Callsign SWA1738
Flight time 0h 32m
Altitude 26000
Route BAYLR6 TEHRU DIRDY
Aircraft B736/M-SDE2E3FGHIRWXY/LB1

Departure

Time 2026-05-04 20:24
Airport Denver International Airport (KDEN)

Arrival

Time 2026-05-04 20:56
Airport Montrose Regional Airport (KMTJ)
Time Latitude Longitude Altitude Speed Heading
2026-05-04 19:53 39.86260 -104.67088 5385 ft 0 kts
2026-05-04 20:02 39.86255 -104.67089 5382 ft 1 kts
2026-05-04 20:02 39.86243 -104.67089 5382 ft 2 kts
2026-05-04 20:02 39.86242 -104.67089 5382 ft 0 kts
2026-05-04 20:03 39.86243 -104.67089 5386 ft 0 kts
2026-05-04 20:03 39.86238 -104.67089 5388 ft 2 kts
2026-05-04 20:03 39.86226 -104.67089 5384 ft 1 kts
2026-05-04 20:03 39.86214 -104.67089 5386 ft 1 kts
2026-05-04 20:04 39.86209 -104.67089 5386 ft 0 kts
2026-05-04 20:04 39.86210 -104.67089 5384 ft 0 kts
2026-05-04 20:05 39.86215 -104.67093 5384 ft 2 kts 330°
2026-05-04 20:06 39.86218 -104.67100 5384 ft 0 kts 296°
2026-05-04 20:06 39.86212 -104.67114 5385 ft 5 kts 221°
2026-05-04 20:06 39.86162 -104.67124 5385 ft 7 kts 185°
2026-05-04 20:06 39.86132 -104.67151 5383 ft 4 kts 232°
2026-05-04 20:07 39.86130 -104.67184 5385 ft 3 kts 272°
2026-05-04 20:07 39.86131 -104.67195 5385 ft 0 kts 271°
2026-05-04 20:14 39.86131 -104.67207 5385 ft 5 kts 271°
2026-05-04 20:15 39.86132 -104.67294 5385 ft 14 kts 271°
2026-05-04 20:15 39.86133 -104.67459 5385 ft 22 kts 270°
2026-05-04 20:15 39.86134 -104.67682 5385 ft 24 kts 273°
2026-05-04 20:15 39.86127 -104.67865 5385 ft 19 kts 246°
2026-05-04 20:16 39.86064 -104.68001 5382 ft 16 kts 238°
2026-05-04 20:16 39.86033 -104.68131 5385 ft 14 kts 268°
2026-05-04 20:16 39.86033 -104.68265 5377 ft 17 kts 270°
2026-05-04 20:16 39.86032 -104.68463 5364 ft 25 kts 270°
2026-05-04 20:17 39.86031 -104.68609 5362 ft 25 kts 270°
2026-05-04 20:17 39.86035 -104.68846 5353 ft 27 kts 271°
2026-05-04 20:17 39.86035 -104.69093 5347 ft 28 kts 270°
2026-05-04 20:17 39.86035 -104.69347 5340 ft 28 kts 270°
2026-05-04 20:18 39.86039 -104.69482 5341 ft 0 kts 272°
2026-05-04 20:19 39.86040 -104.69517 5340 ft 9 kts 270°
2026-05-04 20:19 39.86069 -104.69640 5335 ft 16 kts 328°
2026-05-04 20:19 39.86105 -104.69649 5336 ft 0 kts
2026-05-04 20:23 39.86119 -104.69649 5339 ft 17 kts
2026-05-04 20:23 39.86520 -104.69645 5329 ft 97 kts
2026-05-04 20:23 39.87423 -104.69638 5345 ft 160 kts
2026-05-04 20:24 39.88599 -104.69624 5997 ft 173 kts 355°
2026-05-04 20:24 39.89820 -104.69597 6840 ft 175 kts 355°
2026-05-04 20:24 39.90966 -104.70135 7414 ft 190 kts 313°
2026-05-04 20:24 39.91542 -104.71760 7665 ft 219 kts 271°
2026-05-04 20:25 39.91100 -104.73756 8018 ft 252 kts 236°
2026-05-04 20:25 39.89763 -104.75447 8500 ft 278 kts 221°
2026-05-04 20:25 39.88246 -104.77056 9480 ft 282 kts 222°
2026-05-04 20:25 39.86735 -104.78733 9877 ft 285 kts 223°
2026-05-04 20:26 39.85243 -104.80462 10094 ft 293 kts 223°
2026-05-04 20:26 39.83678 -104.82369 10312 ft 324 kts 225°
2026-05-04 20:26 39.81998 -104.84520 10532 ft 351 kts 226°
2026-05-04 20:26 39.80234 -104.86830 11053 ft 366 kts 226°
2026-05-04 20:27 39.78452 -104.89227 11861 ft 370 kts 230°
2026-05-04 20:27 39.77133 -104.92075 12743 ft 372 kts 250°
2026-05-04 20:27 39.76393 -104.95310 13622 ft 374 kts 255°
2026-05-04 20:27 39.75720 -104.98559 14327 ft 379 kts 255°
2026-05-04 20:28 39.75016 -105.01864 15123 ft 381 kts 254°
2026-05-04 20:28 39.74164 -105.05159 15840 ft 385 kts 249°
2026-05-04 20:28 39.73117 -105.08376 16634 ft 386 kts 246°
2026-05-04 20:28 39.72040 -105.11493 17322 ft 367 kts 246°
2026-05-04 20:29 39.71037 -105.14406 17798 ft 339 kts 246°
2026-05-04 20:29 39.70123 -105.17115 18271 ft 321 kts 247°
2026-05-04 20:29 39.69243 -105.19771 18742 ft 319 kts 248°
2026-05-04 20:29 39.68369 -105.22428 19213 ft 321 kts 248°
2026-05-04 20:30 39.67493 -105.25092 19810 ft 320 kts 248°
2026-05-04 20:30 39.66622 -105.27739 20443 ft 318 kts 248°
2026-05-04 20:30 39.65751 -105.30389 21094 ft 320 kts 248°
2026-05-04 20:30 39.64868 -105.33067 21754 ft 326 kts 248°
2026-05-04 20:31 39.63980 -105.35758 22443 ft 331 kts 248°
2026-05-04 20:31 39.63067 -105.38522 23143 ft 335 kts 248°
2026-05-04 20:31 39.62151 -105.41301 23763 ft 336 kts 248°
2026-05-04 20:31 39.61236 -105.44073 24366 ft 329 kts 249°
2026-05-04 20:32 39.60357 -105.46729 24944 ft 312 kts 249°
2026-05-04 20:32 39.59509 -105.49290 25554 ft 308 kts 249°
2026-05-04 20:32 39.58661 -105.51846 25756 ft 311 kts 250°
2026-05-04 20:32 39.57781 -105.54498 25816 ft 329 kts 249°
2026-05-04 20:33 39.56851 -105.57294 25827 ft 346 kts 249°
2026-05-04 20:33 39.55871 -105.60233 25821 ft 362 kts 249°
2026-05-04 20:33 39.54876 -105.63305 25835 ft 377 kts 251°
2026-05-04 20:33 39.53940 -105.66558 25617 ft 395 kts 252°
2026-05-04 20:34 39.53005 -105.69998 25304 ft 413 kts 252°
2026-05-04 20:34 39.52052 -105.73538 24928 ft 418 kts 252°
2026-05-04 20:34 39.51091 -105.77085 24436 ft 417 kts 252°
2026-05-04 20:34 39.50123 -105.80615 23980 ft 417 kts 252°
2026-05-04 20:35 39.49133 -105.84204 23526 ft 427 kts 251°
2026-05-04 20:35 39.48125 -105.87832 23013 ft 429 kts 251°
2026-05-04 20:35 39.47108 -105.91478 22894 ft 433 kts 251°
2026-05-04 20:35 39.46090 -105.95122 22843 ft 437 kts 251°
2026-05-04 20:36 39.45046 -105.98852 22858 ft 434 kts 251°
2026-05-04 20:36 39.44018 -106.02522 22876 ft 433 kts 251°
2026-05-04 20:36 39.43002 -106.06145 22898 ft 433 kts 251°
2026-05-04 20:36 39.41974 -106.09808 22928 ft 433 kts 251°
2026-05-04 20:37 39.40947 -106.13466 22971 ft 432 kts 251°
2026-05-04 20:37 39.39916 -106.17129 22989 ft 433 kts 251°
2026-05-04 20:37 39.38884 -106.20789 23011 ft 433 kts 251°
2026-05-04 20:37 39.37854 -106.24440 23035 ft 432 kts 251°
2026-05-04 20:38 39.36824 -106.28089 23060 ft 432 kts 251°
2026-05-04 20:38 39.35794 -106.31736 23065 ft 432 kts 251°
2026-05-04 20:38 39.34763 -106.35380 23060 ft 428 kts 251°
2026-05-04 20:38 39.33748 -106.38962 23068 ft 423 kts 251°
2026-05-04 20:39 39.32745 -106.42497 23066 ft 423 kts 251°
2026-05-04 20:39 39.31727 -106.46083 23070 ft 428 kts 251°
2026-05-04 20:39 39.30695 -106.49716 23052 ft 432 kts 251°
2026-05-04 20:39 39.29658 -106.53358 23014 ft 429 kts 251°
2026-05-04 20:40 39.28630 -106.56963 22994 ft 427 kts 252°
2026-05-04 20:40 39.27604 -106.60558 22930 ft 426 kts 251°
2026-05-04 20:40 39.26575 -106.64157 22959 ft 426 kts 252°
2026-05-04 20:40 39.25546 -106.67751 22976 ft 426 kts 251°
2026-05-04 20:41 39.24516 -106.71344 22993 ft 428 kts 251°
2026-05-04 20:41 39.23373 -106.74901 23016 ft 429 kts 248°
2026-05-04 20:41 39.22078 -106.78319 23015 ft 431 kts 245°
2026-05-04 20:41 39.20694 -106.81750 23025 ft 431 kts 245°
2026-05-04 20:42 39.19299 -106.85164 23013 ft 431 kts 245°
2026-05-04 20:42 39.17908 -106.88589 23014 ft 430 kts 245°
2026-05-04 20:42 39.16533 -106.92015 23008 ft 429 kts 245°
2026-05-04 20:42 39.15173 -106.95447 23017 ft 428 kts 245°
2026-05-04 20:43 39.13827 -106.98869 23008 ft 429 kts 245°
2026-05-04 20:43 39.12489 -107.02270 22961 ft 417 kts 246°
2026-05-04 20:43 39.11198 -107.05550 22941 ft 407 kts 246°
2026-05-04 20:43 39.09925 -107.08790 22918 ft 404 kts 246°
2026-05-04 20:44 39.08664 -107.11994 22948 ft 401 kts 246°
2026-05-04 20:44 39.07394 -107.15222 22479 ft 406 kts 245°
2026-05-04 20:44 39.06128 -107.18432 21839 ft 399 kts 245°
2026-05-04 20:44 39.04880 -107.21590 21138 ft 392 kts 245°
2026-05-04 20:45 39.03651 -107.24696 20413 ft 387 kts 245°
2026-05-04 20:45 39.02450 -107.27727 19744 ft 382 kts 244°
2026-05-04 20:45 39.01247 -107.30765 19079 ft 380 kts 244°
2026-05-04 20:45 39.00046 -107.33792 18402 ft 378 kts 244°
2026-05-04 20:46 38.98855 -107.36793 17664 ft 376 kts 244°
2026-05-04 20:46 38.97671 -107.39772 17014 ft 372 kts 244°
2026-05-04 20:46 38.96508 -107.42696 16458 ft 365 kts 244°
2026-05-04 20:46 38.95356 -107.45589 15821 ft 362 kts 244°
2026-05-04 20:47 38.94212 -107.48461 15204 ft 360 kts 244°
2026-05-04 20:47 38.93014 -107.51281 14575 ft 360 kts 237°
2026-05-04 20:47 38.91347 -107.53706 13722 ft 366 kts 224°
2026-05-04 20:47 38.89460 -107.55904 12934 ft 366 kts 224°
2026-05-04 20:48 38.87590 -107.58074 12248 ft 354 kts 224°
2026-05-04 20:48 38.85838 -107.60135 11633 ft 339 kts 224°
2026-05-04 20:48 38.84157 -107.62141 11425 ft 321 kts 225°
2026-05-04 20:48 38.82533 -107.64091 11304 ft 320 kts 225°
2026-05-04 20:49 38.80908 -107.66043 11171 ft 319 kts 225°
2026-05-04 20:49 38.79377 -107.68129 11026 ft 315 kts 236°
2026-05-04 20:49 38.78444 -107.70606 10842 ft 314 kts 253°
2026-05-04 20:49 38.77947 -107.73302 10651 ft 306 kts 257°
2026-05-04 20:50 38.77528 -107.75924 10439 ft 293 kts 258°
2026-05-04 20:50 38.77123 -107.78437 10256 ft 282 kts 257°
2026-05-04 20:50 38.76719 -107.80867 10073 ft 277 kts 257°
2026-05-04 20:50 38.76309 -107.83277 9910 ft 276 kts 256°
2026-05-04 20:51 38.75899 -107.85667 9729 ft 272 kts 257°
2026-05-04 20:51 38.75286 -107.87901 9489 ft 261 kts 235°
2026-05-04 20:51 38.73890 -107.89244 9296 ft 252 kts 198°
2026-05-04 20:51 38.72171 -107.89388 9096 ft 246 kts 181°
2026-05-04 20:52 38.70471 -107.89344 8870 ft 242 kts 183°
2026-05-04 20:52 38.68846 -107.89333 8727 ft 230 kts 184°
2026-05-04 20:52 38.67269 -107.89328 8454 ft 223 kts 184°
2026-05-04 20:52 38.65773 -107.89321 8194 ft 207 kts 184°
2026-05-04 20:53 38.64382 -107.89315 7943 ft 191 kts 184°
2026-05-04 20:53 38.63108 -107.89309 7712 ft 174 kts 185°
2026-05-04 20:53 38.61973 -107.89305 7504 ft 155 kts 184°
2026-05-04 20:53 38.60913 -107.89304 7379 ft 153 kts 185°
2026-05-04 20:54 38.59848 -107.89306 7212 ft 154 kts 183°
2026-05-04 20:54 38.58768 -107.89300 7011 ft 156 kts 181°
2026-05-04 20:54 38.57698 -107.89296 6838 ft 157 kts 181°
2026-05-04 20:54 38.56609 -107.89279 6594 ft 154 kts 182°
2026-05-04 20:55 38.55532 -107.89278 6344 ft 156 kts 187°
2026-05-04 20:55 38.54453 -107.89279 6051 ft 156 kts 184°
2026-05-04 20:55 38.53391 -107.89275 5843 ft 150 kts 182°
2026-05-04 20:55 38.52369 -107.89274 5712 ft 141 kts 180°
2026-05-04 20:56 38.51533 -107.89271 5720 ft 99 kts 180°
2026-05-04 20:56 38.50993 -107.89288 5726 ft 57 kts 187°
2026-05-04 20:56 38.50829 -107.89336 5729 ft 14 kts 205°
2026-05-04 20:56 38.50745 -107.89388 5733 ft 6 kts 203°
2026-05-04 20:57 38.50744 -107.89389 5733 ft 1 kts 204°
2026-05-04 20:57 38.50688 -107.89405 5728 ft 12 kts 185°
2026-05-04 20:57 38.50590 -107.89406 5733 ft 16 kts 180°
2026-05-04 20:57 38.50506 -107.89431 5732 ft 6 kts 232°
2026-05-04 20:58 38.50469 -107.89485 5730 ft 10 kts 230°
2026-05-04 20:58 38.50423 -107.89552 5734 ft 10 kts 229°
2026-05-04 20:58 38.50378 -107.89618 5732 ft 10 kts 229°
2026-05-04 20:58 38.50335 -107.89682 5726 ft 9 kts 229°
2026-05-04 20:59 38.50292 -107.89745 5724 ft 10 kts 230°
2026-05-04 20:59 38.50248 -107.89811 5727 ft 10 kts 229°
2026-05-04 20:59 38.50205 -107.89875 5726 ft 9 kts 229°
2026-05-04 20:59 38.50164 -107.89937 5732 ft 9 kts 231°
2026-05-04 21:00 38.50142 -107.89969 5731 ft 0 kts 230°
2026-05-04 21:20 38.50143 -107.89968 5732 ft 0 kts 230°
2026-05-04 21:21 38.50150 -107.89958 5730 ft 2 kts 229°
2026-05-04 21:21 38.50160 -107.89942 5728 ft 2 kts 229°
2026-05-04 21:21 38.50171 -107.89926 5727 ft 2 kts 229°
2026-05-04 21:22 38.50182 -107.89910 5724 ft 2 kts 228°
2026-05-04 21:22 38.50189 -107.89901 5723 ft 0 kts 228°
2026-05-04 21:23 38.50178 -107.89907 5727 ft 3 kts 194°
2026-05-04 21:23 38.50148 -107.89884 5731 ft 7 kts 137°
2026-05-04 21:23 38.50143 -107.89879 5732 ft 0 kts 140°
2026-05-04 21:23 38.50100 -107.89832 5731 ft 16 kts 140°
2026-05-04 21:24 38.50037 -107.89748 5733 ft 11 kts 101°
2026-05-04 21:24 38.50088 -107.89657 5735 ft 15 kts 52°
2026-05-04 21:24 38.49982 -107.89468 5741 ft 62 kts 139°
2026-05-04 21:24 38.49441 -107.88873 5763 ft 140 kts 139°
2026-05-04 21:25 38.48585 -107.87885 6103 ft 181 kts 134°
2026-05-04 21:25 38.47806 -107.86488 6930 ft 211 kts 110°
2026-05-04 21:25 38.47865 -107.84510 7308 ft 243 kts 51°
2026-05-04 21:25 38.48715 -107.82562 7619 ft 275 kts 77°
2026-05-04 21:26 38.49947 -107.81266 7712 ft 252 kts 351°
2026-05-04 21:26 38.51631 -107.81455 7643 ft 250 kts 342°
2026-05-04 21:26 38.53227 -107.82050 7779 ft 212 kts 328°
2026-05-04 21:26 38.54467 -107.82943 7992 ft 221 kts 330°
2026-05-04 21:27 38.56109 -107.83561 7840 ft 272 kts 324°
2026-05-04 21:27 38.57907 -107.84857 7373 ft 331 kts 19°
2026-05-04 21:27 38.58482 -107.82522 7850 ft 332 kts 134°
2026-05-04 21:27 38.56456 -107.80620 7926 ft 376 kts 147°
2026-05-04 21:28 38.54112 -107.79326 8783 ft 377 kts 176°
2026-05-04 21:28 38.51278 -107.79626 6729 ft 440 kts 200°
2026-05-04 21:28 38.48345 -107.80202 6795 ft 407 kts 184°
2026-05-04 21:28 38.46283 -107.80509 7550 ft 329 kts 193°
2026-05-04 21:29 38.44228 -107.80897 8582 ft 288 kts 190°
2026-05-04 21:29 38.42298 -107.81177 8514 ft 270 kts 189°
2026-05-04 21:29 38.40475 -107.81390 8434 ft 254 kts 189°
2026-05-04 21:29 38.38767 -107.81638 8342 ft 239 kts 194°
2026-05-04 21:30 38.37262 -107.82302 8436 ft 230 kts 206°
2026-05-04 21:30 38.35766 -107.83057 8426 ft 235 kts 204°
2026-05-04 21:30 38.34143 -107.83929 8702 ft 266 kts 217°
2026-05-04 21:30 38.32775 -107.85360 9641 ft 247 kts 223°
2026-05-04 21:31 38.29433 -107.87061 10419 ft 277 kts 184°
2026-05-04 21:31 38.27688 -107.87577 10613 ft 255 kts 219°
2026-05-04 21:31 38.26426 -107.89181 10453 ft 255 kts 225°
2026-05-04 21:32 38.24741 -107.90106 10630 ft 273 kts 182°
2026-05-04 21:32 38.23256 -107.90295 12448 ft 221 kts 192°
2026-05-04 21:32 38.21406 -107.90746 11604 ft 303 kts 210°
2026-05-04 21:32 38.20041 -107.92711 12248 ft 324 kts 264°
2026-05-04 21:33 38.19738 -107.95571 10191 ft 397 kts 226°
2026-05-04 21:33 38.17876 -107.98166 11667 ft 315 kts 223°
2026-05-04 21:33 38.16280 -107.99318 16015 ft 274 kts 215°
2026-05-04 21:33 38.14403 -108.00088 14968 ft 328 kts 175°
2026-05-04 21:34 38.12062 -107.99920 14564 ft 355 kts 180°
2026-05-04 21:34 38.10015 -108.00212 10766 ft 338 kts 208°
2026-05-04 21:34 38.07358 -108.02037 8557 ft 434 kts 215°
2026-05-04 21:34 38.04786 -108.03527 8205 ft 389 kts 205°
2026-05-04 21:35 38.02490 -108.05035 7941 ft 365 kts 230°
2026-05-04 21:35 38.02493 -108.08019 7791 ft 355 kts 280°
2026-05-04 21:35 38.03019 -108.11244 7765 ft 365 kts 285°
2026-05-04 21:35 38.04690 -108.13550 7689 ft 380 kts 320°
2026-05-04 21:36 38.06178 -108.16242 8352 ft 379 kts 331°
2026-05-04 21:36 38.08630 -108.17935 7472 ft 414 kts 326°
2026-05-04 21:36 38.09880 -108.18595 6779 ft 113 kts 89°